Location: Powder Track
(41.8531°N, 72.3584°W)
Time: 22:42:35
(UTC+00:00)

X-37B - Pass Details

Date: 25 June 2021
Orbit: 383 x 392 km, 45.0° (Epoch: 01 July)

Event Time Altitude Azimuth Distance (km) Brightness Sun altitude
Rises 01:41:57 0° 243° (WSW) 2,249 4.7 -11.3°
Reaches altitude 10° 01:44:01 10° 241° (WSW) 1,398 3.6 -11.6°
Maximum altitude 01:47:08 71° 157° (SSE) 408 0.4 -12.0°
Drops below altitude 10° 01:50:17 10° 73° (ENE) 1,402 3.2 -12.4°
Enters shadow 01:51:58 - 72° (ENE) 2,094 4.1 -12.6°
